This is the latest recevied weather packets stored in our database for station/object EA7OC-10. If no packets are shown the sender has not sent any weather packets the latest 10 day(s).
| Time | Temp. | Humidity | Pressure | Rain* | Wind** | Luminosity | Snow |
|---|---|---|---|---|---|---|---|
| 1777558789 | 33.33° C | 36% | 1016.4 hPa | - | - | - | - |
| 1777554286 | 33.33° C | 36% | 1016.6 hPa | - | - | - | - |
| 1777553386 | 33.33° C | 37% | 1016.6 hPa | - | - | - | - |
| 1777551581 | 32.22° C | 38% | 1016.6 hPa | - | - | - | - |
| 1777547981 | 28.33° C | 38% | 1017.1 hPa | - | - | - | - |
| 1777547081 | 28.89° C | 37% | 1017.3 hPa | - | - | - | - |
| 1777545280 | 30° C | 35% | 1017.8 hPa | - | - | - | - |
| 1777544380 | 31.67° C | 35% | 1017.8 hPa | - | - | - | - |
| 1777543480 | 32.22° C | 36% | 1017.9 hPa | - | - | - | - |
| 1777542578 | 32.78° C | 37% | 1017.9 hPa | - | - | - | - |
| 1777541678 | 32.78° C | 36% | 1018 hPa | - | - | - | - |
| 1777540778 | 32.78° C | 37% | 1018 hPa | - | - | - | - |
| 1777539877 | 32.78° C | 37% | 1017.8 hPa | - | - | - | - |
| 1777538977 | 32.22° C | 37% | 1017.8 hPa | - | - | - | - |
| 1777538077 | 31.67° C | 37% | 1017.9 hPa | - | - | - | - |
| 1777537177 | 32.22° C | 38% | 1017.8 hPa | - | - | - | - |
| 1777536277 | 31.67° C | 36% | 1017.9 hPa | - | - | - | - |
| 1777534477 | 29.44° C | 38% | 1017.9 hPa | - | - | - | - |
| 1777533577 | 28.33° C | 41% | 1017.8 hPa | - | - | - | - |
| 1777532677 | 26.11° C | 40% | 1017.9 hPa | - | - | - | - |
| 1777531777 | 24.44° C | 43% | 1017.7 hPa | - | - | - | - |
| 1777530876 | 21.67° C | 43% | 1017.6 hPa | - | - | - | - |
| 1777529976 | 18.33° C | 42% | 1017.5 hPa | - | - | - | - |
| 1777529076 | 15.56° C | 40% | 1017.5 hPa | - | - | - | - |
| 1777528176 | 14.44° C | 39% | 1017.2 hPa | - | - | - | - |
* Rain since midnight (hover to see other rain measurements)
** Current wind speed in m/s (hover to see current wind gust speed)